This is the latest recevied weather packets stored in our database for station/object M0TUM-1. If no packets are shown the sender has not sent any weather packets the latest 10 day(s).
| Time | Temp. | Humidity | Pressure | Rain* | Wind** | Luminosity | Snow |
|---|---|---|---|---|---|---|---|
| 1777560560 | 18.33° C | 29% | 1024.4 hPa | 0 mm | - | 491 W/m² | - |
| 1777560258 | 18.33° C | 31% | 1024.4 hPa | 0 mm | - | 491 W/m² | - |
| 1777559955 | 18.33° C | 29% | 1024.3 hPa | 0 mm | - | 492 W/m² | - |
| 1777559649 | 18.33° C | 29% | 1024.3 hPa | 0 mm | - | 496 W/m² | - |
| 1777559348 | 18.33° C | 28% | 1024.7 hPa | 0 mm | - | 519 W/m² | - |
| 1777559043 | 17.78° C | 29% | 1024.7 hPa | 0 mm | - | 515 W/m² | - |
| 1777558739 | 17.78° C | 30% | 1024.6 hPa | 0 mm | - | 527 W/m² | - |
| 1777558435 | 17.78° C | 28% | 1025 hPa | 0 mm | - | 537 W/m² | - |
| 1777558131 | 17.78° C | 30% | 1024.9 hPa | 0 mm | - | 538 W/m² | - |
| 1777557828 | 17.22° C | 29% | 1024.9 hPa | 0 mm | - | 547 W/m² | - |
| 1777557525 | 17.78° C | 29% | 1025 hPa | 0 mm | - | 554 W/m² | - |
| 1777557221 | 17.78° C | 29% | 1024.9 hPa | 0 mm | - | 556 W/m² | - |
| 1777556917 | 17.22° C | 30% | 1024.9 hPa | 0 mm | - | 576 W/m² | - |
| 1777556612 | 17.78° C | 31% | 1024.9 hPa | 0 mm | - | 583 W/m² | - |
| 1777556307 | 17.78° C | 30% | 1025.2 hPa | 0 mm | - | 583 W/m² | - |
| 1777556004 | 17.22° C | 32% | 1025 hPa | 0 mm | - | 589 W/m² | - |
| 1777555698 | 17.22° C | 33% | 1025.1 hPa | 0 mm | - | 575 W/m² | - |
| 1777555395 | 17.22° C | 34% | 1025 hPa | 0 mm | - | 559 W/m² | - |
| 1777555091 | 17.22° C | 36% | 1025.1 hPa | 0 mm | - | 588 W/m² | - |
| 1777554789 | 17.78° C | 37% | 1025.2 hPa | 0 mm | - | 606 W/m² | - |
| 1777554486 | 17.78° C | 37% | 1025.1 hPa | 0 mm | - | 603 W/m² | - |
| 1777554183 | 17.78° C | 38% | 1025.2 hPa | 0 mm | - | 603 W/m² | - |
| 1777553879 | 17.78° C | 38% | 1025.2 hPa | 0 mm | - | 598 W/m² | - |
| 1777553576 | 17.78° C | 39% | 1025.1 hPa | 0 mm | - | 607 W/m² | - |
| 1777553271 | 17.78° C | 38% | 1025.1 hPa | 0 mm | - | 611 W/m² | - |
* Rain latest hour (hover to see other rain measurements)
** Current wind speed in m/s (hover to see current wind gust speed)